User: anonymous   Login
Location: Caltech
(34.1382°N, 118.1253°W)
Time: 15:09:58
(UTC-07:00)
Language:

PAYLOAD A - Orbit

View from above orbital plane
View from above orbital plane
View from above satellite
View from above satellite

Ground track
Ground track

The orbit data is extracted from the following two-line orbital elements,

1 27840U 03031A   15085.84354228  .00000112  00000-0  47741-4 0  9994
2 27840 098.2137 107.8165 0099369 051.4161 074.3896 14.38786734616354
Epoch (UTC): 26 March 2015 20:14:42
Eccentricity: 0.0099369
inclination: 98.2137°
perigee height: 691 km
apogee height: 833 km
right ascension of ascending node: 107.8165°
argument of perigee: 51.4161°
revolutions per day: 14.38786734
mean anomaly at epoch: 74.3896°
orbit number at epoch: 61635

The dashed part of the orbit path shows where the satellite is in the earth's shadow,  

DLR